Location: Brachbach
(49.1847°N, 9.7240°E)
Time: 13:04:31
(UTC+00:00)

Nimbus 7 Rocket - Pass Details

Date: 10 August 2024
Orbit: 921 x 965 km, 99.4° (Epoch: 14 September)

Event Time Altitude Azimuth Distance (km) Brightness Sun altitude
Rises 22:29:39 0° 31° (NNE) 3,591 8.1 -24.4°
Reaches altitude 10° 22:33:36 10° 57° (ENE) 2,634 7.0 -24.6°
Maximum altitude 22:36:22 13° 85° (E) 2,381 6.4 -24.7°
Enters shadow 22:37:11 13° 94° (E) 2,401 6.4 -24.7°
